Location: Borojevi?i
(45.0486°N, 16.2297°E)
Time: 09:26:21
(UTC+00:00)

Cosmos 2228 Rocket - Pass Details

Date: 08 August 2020
Orbit: 617 x 653 km, 82.5° (Epoch: 21 September)

Event Time Altitude Azimuth Distance (km) Brightness Sun altitude
Rises 19:11:29 0° 348° (NNW) 2,925 7.3 -10.0°
Reaches altitude 10° 19:13:44 10° 346° (NNW) 2,008 6.5 -10.4°
Maximum altitude 19:18:08 66° 265° (W) 680 3.4 -11.0°
Drops below altitude 10° 19:22:29 10° 183° (S) 1,978 5.3 -11.6°
Enters shadow 19:24:07 - 181° (S) 2,642 5.9 -11.8°
